STARLINK-5869, 57061

Orbit data source: Space-Track

STARLINK-5869, 57061 is a payload satellite owned by SpaceX/Seattle (US) in LEO that was launched on Thu, 22 Jun 2023 UTC via an FALCON 9 launch vehicle from the Air Force Western Test Range (AFWTR). Payload-class satellites include a variety of spacecraft equipped with specific instruments for various scientific and technological missions. These include communications satellites like Starlink; space stations such as the ISS; scientific satellites like the Hubble; Earth observation satellites from companies like Planet Labs, Umbra, and HawkEye 360; GPS; miniature CubeSats for education and research; and military/defense satellites.

Loading next visibility...
Identifier
57061, 2023-088P
Orbit
LEO
Country
Flag of USUS
Related business
Manufacturer
SpaceX/Seattle
Mission
Operational Commercial Communications
Bus & Motor
STARLINK, Unknown motor
Mass
305 kg wet, ~290 kg dry
Launch date (UTC)
Icon of a cake. It is the launch day of the satellite!2023-06-22 (3 years ago)
Launch vehicle
FALCON 9
Launch site
Air Force Western Test Range (AFWTR)
Object type
Payload
Rocket body
Debris
Shape & HBR
Box + 1 Pan, 10.1 m
Radar Cross Section
11.087 m², Large (>1 m²)

Expand to show TLE details & history
Last TLE update: 2 days ago

TLE from 2 days ago
0 STARLINK-5869
1 57061U 23088P   26171.21223909  .00000550  00000-0  29497-4 0  9990
2 57061  43.0039 254.9207 0001314 266.0819  93.9882 15.27575197164997
Epoch: 2026-06-20T05:05Z
TLE epoch observation values (Epoch: 2026-06-20T05:05:37.457Z)
Latitude
-0.00005°
Longitude
-89.91553°
Altitude
482.902 km
Speed
7.626 km/s
True Right ascension
16h 59m 40s
True Declination
0° 00' 00"
Sunlit
Object was in full shadow at epoch
Visualization orbit readout
Latitude
Unknown
Longitude
Unknown
Altitude
Unknown
Speed
Unknown
Apparent Right ascension
Unknown
Apparent Declination
Unknown
Sunlit
N/A
Visualization observer readout
Local Sidereal Time
21:33:42
Azimuth
Unknown
Elevation
Unknown
Doppler factor
Unknown
Orbital elements
Apogee altitude
485.91 km
Perigee altitude
484.106 km
Semi-major axis
6,863.145 km
Eccentricity
0.00013
Inclination
43.0039°
RAAN
254.9207°
Arg. of periapsis
266.0819°
True anomaly
94.00322°
Mean anomaly
93.9882°
Eccentric anomaly
93.99571°
Mean motion
3.81732 °/min
Orbital period
94.31 mins
BSTAR
0.000029497
Loading maneuver chart data...
Computing Atmospheric mass density...
Loading historical data...
Loading historical data...
Loading historical data...
Loading historical data...
Loading historical data...
Loading historical data...
Loading historical data...

Documentation

Showing up to 5 results
|